SCP
0 0 0 0 0 0 0 0 0 0 0 0 0 0 0 0 0 0 0 0 0 0 1 1 1 1 1 1 1 1 1 1 1 1 2 1 1 2 2 2 2 2 2 2
0 0 0 0 0 0 0 0 0 0 0 0 0 0 0 0 0 0 0 0 0 0 1 1 1 1 0 0 0 0 0 0 1 1 1 1 1 1 1 1 1 1 1 2
0 0 0 0 0 0 0 0 0 0 0 0 0 0 0 0 0 0 0 0 0 0 0 1 0 0 0 0 0 0 0 0 0 0 1 1 1 1 1 1 1 1 1 1
0 0 0 0 0 0 0 0 0 0 0 0 0 0 0 0 0 0 0 0 0 0 0 0 0 0 0 0 0 0 0 0 0 0 0 0 0 0 1 1 1 1 1 1
0 0 0 0 0 0 0 0 0 0 0 0 0 0 0 0 0 0 0 0 0 0 0 0 0 0 0 0 0 0 0 0 0 0 0 0 0 1 1 1 1 1 1 1
0 0 0 0 0 0 0 0 0 0 0 0 0 0 0 0 0 0 0 0 0 0 0 0 0 0 0 0 0 0 0 0 0 0 1 1 1 1 1 1 1 1 1 0
0 0 0 0 0 0 0 0 0 0 0 0 0 0 0 0 0 0 0 0 0 0 0 0 0 0 0 0 0 0 0 0 1 1 1 1 1 1 1 1 1 1 1 0
0 0 0 0 0 0 0 0 0 0 0 0 0 0 0 0 0 0 0 0 0 0 0 0 0 0 0 1 1 1 1 1 1 1 1 0 1 1 1 1 1 1 0 0
0 0 0 0 0 0 0 0 0 0 0 0 0 0 0 0 0 0 0 0 0 0 0 0 0 1 1 1 1 1 1 1 1 1 0 0 1 1 1 1 0 0 0 0
0 0 0 0 0 0 0 0 0 0 0 0 0 0 0 0 0 0 0 0 0 0 0 1 1 1 1 1 1 1 1 1 1 0 0 0 1 1 1 0 0 0 0 0
0 0 0 0 0 0 0 0 0 0 0 0 0 0 0 0 0 0 0 0 1 1 1 1 1 1 1 1 1 1 1 0 0 0 0 0 1 0 0 0 0 0 0 0
0 0 0 0 0 0 0 0 0 0 0 0 0 0 0 1 1 1 1 1 1 1 1 1 1 1 1 1 1 0 0 0 0 0 0 0 0 0 0 0 0 0 0 0
0 0 0 0 0 0 0 0 0 0 0 0 0 0 0 1 1 1 1 1 1 1 0 0 0 0 0 0 0 0 0 0 0 0 0 0 0 0 0 0 0 0 0 0
0 0 0 0 0 0 0 0 0 0 0 0 0 0 0 1 1 2 1 1 1 0 0 0 0 0 0 0 0 0 0 0 0 0 0 0 0 0 0 0 0 0 0 0
0 0 0 0 0 0 0 0 0 0 0 0 0 0 1 1 1 2 2 1 1 0 0 0 0 0 0 0 0 0 0 0 0 0 0 0 0 0 0 0 0 0 0 0
0 0 0 0 0 0 0 0 0 0 0 0 1 1 1 1 2 3 2 2 1 0 0 0 0 0 0 0 0 0 0 0 0 0 0 0 0 0 0 0 0 0 0 0
0 0 0 0 0 0 0 0 0 0 0 0 1 1 1 1 3 3 2 1 1 0 0 0 0 0 0 0 0 0 0 0 0 0 0 0 0 0 0 0 0 0 0 0
0 0 0 0 0 0 0 0 0 0 0 0 1 1 1 2 2 2 1 1 0 0 0 0 0 0 0 0 0 0 0 0 0 0 0 0 0 0 0 0 0 0 0 0
0 0 0 0 0 0 0 0 1 1 1 1 1 1 2 2 2 1 1 0 0 0 0 0 0 0 0 0 0 0 0 0 0 0 0 0 0 0 0 0 0 0 0 0
1 1 1 1 1 1 1 1 1 1 1 1 1 2 2 2 2 1 1 0 0 0 0 0 0 0 0 0 0 0 0 0 0 0 0 0 0 0 0 0 0 0 0 0
1 1 1 1 1 1 1 1 1 2 2 2 2 2 2 3 2 1 1 0 0 0 0 0 0 0 0 0 0 0 0 0 0 0 0 0 0 0 0 0 0 0 0 0
1 2 1 1 1 1 1 2 2 2 2 3 3 3 3 3 3 2 1 1 0 0 0 0 0 0 0 0 0 0 0 0 0 0 0 0 0 0 0 0 0 0 0 0
2 2 2 2 2 2 2 2 2 2 2 3 3 3 4 3 3 2 1 0 0 0 0 0 0 0 0 0 0 0 0 0 0 0 0 0 0 0 0 0 0 0 0 0
2 2 2 2 2 2 2 2 2 2 2 2 3 4 4 3 3 2 1 0 0 0 0 0 0 0 0 0 0 0 0 0 0 0 0 0 0 0 0 0 0 0 0 0
1 2 2 2 3 2 2 3 3 2 2 2 2 3 3 3 2 1 1 0 0 0 0 0 0 0 0 0 0 0 0 0 0 0 0 0 0 0 0 0 0 0 0 0
2 2 2 2 2 2 2 2 2 2 2 2 2 2 3 3 2 1 1 0 0 0 0 0 0 0 0 0 0 0 0 0 0 0 0 0 0 0 0 0 0 0 0 0
2 2 2 2 1 1 1 1 1 2 3 2 2 2 3 2 2 1 1 0 0 0 0 0 0 0 0 0 0 0 0 0 0 0 0 0 0 0 0 0 0 0 0 0
Wind_Speed
6 4 5 5 5 6 7 8 8 10 10 11 11 11 11 12 12 11 11 12 11 10 9 9 9 9 9 10 10 10 10 11 9 9 10 10 10 10 10 9 11 9 9 9
8 6 7 4 2 4 7 8 9 10 9 12 12 11 11 11 10 10 12 13 13 12 11 11 10 10 10 10 10 10 11 11 10 10 11 10 11 10 10 9 10 10 10 10
8 6 8 3 2 4 7 8 8 9 9 12 12 12 12 10 10 11 13 13 13 13 11 10 10 9 10 11 11 11 11 12 11 11 12 11 13 12 11 10 10 10 10 10
9 7 5 2 3 5 6 8 7 8 10 11 11 11 8 10 11 11 12 13 13 12 12 11 11 10 11 12 11 11 11 12 12 12 13 12 12 12 11 10 10 9 10 10
7 8 3 5 4 4 5 6 8 8 9 11 11 11 5 12 11 11 12 12 11 12 12 11 11 12 12 13 13 13 12 12 13 13 13 13 13 12 10 10 10 9 9 10
8 10 9 4 5 3 3 2 8 9 9 10 11 9 9 12 12 12 11 11 11 12 12 11 11 11 12 13 13 13 13 13 13 13 13 13 13 11 10 9 9 9 9 9
8 9 3 6 3 3 5 5 7 8 8 9 8 8 9 11 11 11 11 11 12 12 11 10 10 10 12 13 13 14 14 13 13 13 12 12 10 9 9 9 9 9 9 8
5 7 3 4 4 5 4 4 5 7 8 8 8 9 10 10 11 11 12 12 12 11 10 9 10 11 13 13 13 14 14 14 14 13 12 11 10 9 9 8 8 8 7 7
4 3 2 3 3 5 3 2 4 6 6 7 8 9 10 10 10 11 11 11 11 12 11 10 10 10 13 13 13 14 14 14 13 13 11 10 10 10 8 7 6 6 5 5
3 2 1 0 2 3 2 1 3 4 5 6 8 9 9 9 9 10 10 11 11 12 12 12 11 11 11 11 12 13 14 14 12 11 11 10 7 7 7 6 5 5 5 4
5 4 4 3 2 2 2 1 2 3 5 6 7 8 8 8 8 9 9 10 10 10 11 12 11 11 12 11 12 13 14 13 12 10 9 9 8 6 6 4 3 5 5 5
3 1 2 1 3 3 2 1 1 3 4 5 6 7 8 8 8 8 9 10 10 11 12 12 11 11 11 11 12 13 12 11 9 9 8 7 7 7 5 5 5 5 5 5
1 1 1 3 3 3 2 2 1 1 3 4 5 6 7 7 8 9 9 10 10 11 11 11 11 11 12 12 12 12 12 11 9 9 8 8 7 6 6 4 5 6 6 6
1 0 1 2 2 3 3 2 1 2 2 2 4 5 6 7 8 9 10 10 10 11 11 11 11 12 12 12 12 13 12 11 10 8 8 7 7 6 6 6 4 2 4 6
3 4 5 4 4 4 4 4 4 3 2 2 4 4 6 7 8 9 9 9 10 11 11 11 11 12 12 12 12 13 11 9 9 9 8 7 6 6 5 6 4 3 1 2
5 6 6 6 6 6 6 6 5 3 3 3 3 4 6 6 7 8 8 9 10 11 10 10 10 12 12 12 12 10 9 13 12 9 8 7 6 6 5 5 4 3 2 1
6 7 8 7 7 7 7 6 4 3 2 2 3 4 6 7 7 8 8 9 9 8 7 9 10 12 12 11 11 9 9 10 13 9 7 7 6 6 5 5 4 3 2 2
6 7 7 7 7 6 5 5 3 2 2 2 2 3 5 6 7 8 8 9 9 7 7 9 10 12 11 10 10 9 9 8 8 8 7 6 7 6 5 4 4 4 2 0
6 6 6 5 5 4 4 4 3 3 2 2 3 4 4 5 6 7 7 8 8 7 8 10 11 10 10 11 12 8 8 9 8 7 7 7 6 5 5 5 5 4 4 3
5 5 5 5 5 4 3 3 3 3 3 3 4 4 4 4 5 6 7 7 4 5 7 8 9 8 10 11 13 9 8 9 9 8 7 6 6 6 6 6 6 6 5 4
5 6 5 5 4 4 4 4 4 4 4 4 4 4 4 4 5 5 6 5 4 5 7 7 5 7 9 11 12 7 8 8 8 7 7 6 6 6 6 7 6 6 6 5
6 6 6 5 4 4 4 4 5 6 5 5 6 5 4 4 5 4 3 2 3 4 5 5 6 7 11 13 8 7 7 8 7 7 6 6 6 6 6 6 5 5 5 5
8 8 8 7 6 5 6 7 8 7 7 7 7 6 5 3 3 4 3 2 3 4 5 4 5 8 13 8 6 6 7 8 7 7 7 6 5 5 5 6 5 5 5 5
9 9 9 8 8 7 7 8 8 7 8 8 7 6 4 4 3 3 1 4 2 2 3 2 3 8 10 5 5 6 6 7 7 7 7 7 6 6 6 6 6 5 6 7
10 10 10 9 9 8 8 8 8 9 10 8 7 7 6 4 2 1 1 1 3 2 2 2 2 5 5 5 5 6 6 6 7 7 6 6 7 7 6 6 6 6 7 7
10 10 9 8 7 7 8 8 8 7 7 6 5 5 5 4 4 3 2 2 1 1 3 1 1 2 4 5 5 6 6 6 6 6 7 6 7 7 7 7 8 7 7 7
12 11 8 9 8 8 8 7 7 6 5 5 5 4 4 4 4 3 2 1 1 1 1 2 2 3 4 5 5 5 5 5 6 6 6 6 6 6 6 7 6 6 6 7
Wind_Direction
323 330 343 5 7 10 14 1 347 349 357 35 22 8 2 355 348 345 353 353 352 350 345 340 337 332 328 327 327 325 322 319 314 312 308 304 300 296 291 287 285 282 279 276
315 317 314 306 355 359 359 352 345 339 4 27 11 2 353 346 346 355 353 349 347 344 341 338 333 330 331 328 329 327 321 316 312 309 307 305 302 298 294 289 286 281 276 274
311 294 293 327 39 5 354 351 345 349 12 9 356 353 345 351 12 0 351 347 344 342 336 333 332 334 332 329 327 322 318 315 315 313 312 309 307 304 299 295 291 286 281 275
296 292 306 91 72 39 360 341 355 17 11 359 353 345 356 37 20 358 351 346 342 336 333 333 335 335 332 326 323 319 318 317 317 315 313 309 303 298 297 295 289 284 280 277
303 310 321 131 89 41 356 345 34 17 358 353 346 326 35 33 12 1 353 345 338 334 333 335 335 337 330 324 324 321 321 321 318 315 310 307 303 300 298 294 290 283 280 275
292 306 313 90 101 45 308 99 32 7 358 348 344 334 349 4 2 358 350 343 338 337 336 336 337 335 329 326 325 324 323 319 316 313 309 306 301 301 298 292 288 287 282 277
283 291 356 86 83 326 324 37 7 358 351 349 357 336 338 351 357 352 345 341 342 341 337 335 335 335 328 325 325 325 321 317 315 312 308 302 304 304 300 296 293 288 285 281
285 298 42 48 19 29 44 15 347 350 350 352 342 338 346 352 351 346 342 342 342 337 335 334 336 335 329 326 326 323 319 316 314 312 311 313 311 307 304 300 297 294 292 291
358 6 111 63 62 83 77 351 348 348 348 345 340 342 348 349 346 341 340 340 338 335 332 334 337 337 329 326 325 323 319 317 315 313 314 311 309 309 308 305 304 305 301 298
301 296 215 250 116 106 86 21 347 343 347 351 343 343 347 345 340 340 338 337 337 334 332 333 337 336 329 324 326 324 320 318 316 315 318 317 313 310 311 315 317 315 314 312
263 265 264 228 148 123 111 69 337 350 352 348 343 341 343 338 339 338 333 335 335 333 330 333 337 334 333 333 330 325 322 320 317 317 316 315 314 311 311 316 310 301 311 318
295 17 279 324 131 143 153 221 329 340 333 339 343 338 338 337 337 335 333 333 334 334 334 335 335 335 336 336 333 327 323 322 320 318 317 316 316 317 299 283 272 261 267 287
319 288 320 97 132 153 187 204 210 286 309 325 336 340 336 335 335 335 332 334 336 336 334 335 336 336 337 337 332 325 321 318 317 317 316 316 316 316 315 295 261 257 255 260
82 161 236 224 219 174 207 218 231 268 295 333 338 336 337 337 335 333 333 336 338 334 334 339 337 338 341 336 329 324 321 317 316 315 315 315 317 317 315 317 311 280 231 235
203 223 235 218 196 191 198 222 240 267 299 325 328 338 339 333 330 331 334 338 338 332 337 342 339 340 340 334 328 324 322 319 320 316 315 315 317 320 320 318 315 312 261 182
233 238 238 216 208 217 220 233 247 268 291 309 326 334 329 325 329 331 338 342 338 335 338 342 341 341 336 331 329 325 322 320 319 318 317 320 328 332 333 333 334 338 340 15
240 238 239 233 226 225 231 241 250 262 288 310 324 327 323 325 328 336 340 340 333 329 345 350 347 339 331 332 333 326 323 322 322 321 324 333 337 340 336 334 340 349 355 14
248 250 247 239 241 237 226 228 229 222 258 278 293 310 314 320 328 334 332 330 324 333 2 357 351 331 330 341 338 324 322 324 326 328 333 339 337 334 335 346 352 357 348 29
261 255 255 247 235 230 221 215 215 209 223 259 285 295 301 314 325 326 327 323 323 343 360 352 338 329 339 346 341 322 326 328 329 331 335 337 340 350 356 360 1 3 359 5
278 271 265 256 239 223 210 208 208 208 216 230 256 277 292 311 318 318 322 315 2 17 345 338 329 341 342 343 336 324 330 334 337 340 346 352 357 1 4 7 9 11 12 14
304 290 275 261 242 219 210 205 210 219 226 234 245 262 279 296 303 307 307 317 47 33 335 315 333 356 346 333 315 326 340 343 344 348 350 356 1 3 8 7 8 16 14 11
321 309 299 281 252 236 221 209 216 225 225 231 243 254 265 275 286 291 285 336 34 38 330 337 9 356 334 321 323 339 343 348 351 352 354 358 1 2 4 4 6 11 11 12
333 321 308 294 273 247 233 226 223 222 227 233 238 240 249 268 288 297 310 47 32 7 320 3 357 331 322 319 336 343 348 352 354 354 354 355 358 359 2 4 5 10 11 12
326 317 306 296 282 263 245 237 229 224 229 231 234 224 216 231 234 241 22 111 111 323 320 63 318 316 310 324 348 352 352 355 352 352 357 358 0 4 7 7 6 9 18 19
306 301 294 284 271 260 247 234 229 227 231 231 233 213 198 201 222 261 11 98 132 262 308 158 231 301 321 353 359 2 1 2 351 346 357 0 4 9 11 13 15 18 24 22
292 283 280 272 272 268 263 249 239 232 226 223 223 215 196 174 171 174 199 216 171 231 296 337 355 330 0 7 7 8 6 0 354 357 2 2 7 13 15 18 26 26 22 23
282 276 264 256 256 258 258 256 250 240 227 217 215 206 186 166 169 180 200 225 214 248 343 3 7 19 21 16 11 11 17 11 4 1 1 6 9 12 14 17 22 25 24 32